Location: Amsterdam
(30.7274°N, 84.4357°W)
Time: 03:02:04
(UTC+00:00)

Transit 2A Rocket - Pass Details

Date: 25 February 2026
Orbit: 583 x 900 km, 66.7° (Epoch: 8 March)

Event Time Altitude Azimuth Distance (km) Brightness Sun altitude
Rises 03:53:48 0° 355° (N) 3,286 - -55.2°
Reaches altitude 10° 03:57:39 10° 21° (NNE) 2,275 - -55.9°
Maximum altitude 04:00:07 13° 50° (NE) 2,000 - -56.4°
Drops below altitude 10° 04:02:28 10° 79° (ENE) 2,168 - -56.8°
Sets 04:05:57 0° 106° (ESE) 3,006 - -57.4°
